Location: Casteau
(50.5142°N, 4.0161°E)
Time: 05:28:20
(UTC+00:00)

Okean 1-7 Rocket - Pass Details

Date: 18 September 2020
Orbit: 616 x 649 km, 82.5° (Epoch: 29 October)

Event Time Altitude Azimuth Distance (km) Brightness Sun altitude
Rises 20:40:44 0° 350° (N) 2,981 7.8 -25.8°
Reaches altitude 10° 20:43:00 10° 352° (N) 2,067 6.8 -26.1°
Enters shadow 20:46:40 55° 9° (N) 784 4.1 -26.6°
